Location: Pittman
(37.9557°N, 80.9209°W)
Time: 10:58:34
(UTC+00:00)

Envisat - Visible Passes

Search period start: 18 April 2026 00:00
Search period end: 28 April 2026 00:00
Orbit: 761 x 762 km, 98.4° (Epoch: 18 April)

Date Brightness Start Highest point End Pass type
(mag) Time Alt. Az. Time Alt. Az. Time Alt. Az.
18 Apr 3.4 07:49:50 10° NNE 07:54:18 61° ENE 07:54:18 61° ENE visible
18 Apr 4.8 09:30:40 10° NNW 09:33:12 14° WNW 09:34:25 13° WNW visible
19 Apr 4.7 07:12:37 10° NE 07:16:09 27° E 07:16:09 27° E visible
19 Apr 3.9 08:51:24 10° N 08:55:48 31° WNW 08:56:16 30° W visible
20 Apr 5.7 06:37:11 10° ENE 06:37:59 11° E 06:37:59 11° E visible
20 Apr 2.9 08:13:07 10° N 08:18:06 72° WNW 08:18:06 72° WNW visible
21 Apr 3.8 07:35:28 10° NNE 07:39:57 46° E 07:39:57 46° E visible
21 Apr 4.5 09:15:24 10° NNW 09:18:53 19° WNW 09:20:04 18° W visible
22 Apr 5.1 06:58:38 10° NE 07:01:47 20° E 07:01:47 20° E visible
22 Apr 3.4 08:36:39 10° N 08:41:24 42° WNW 08:41:55 41° W visible
23 Apr 2.9 07:58:37 10° NNE 08:03:42 82° ESE 08:03:45 82° ESE visible
23 Apr 5.0 09:40:19 10° NW 09:41:53 11° WNW 09:43:27 10° W visible
24 Apr 4.2 07:21:13 10° NNE 07:25:34 34° E 07:25:34 34° E visible
24 Apr 4.1 09:00:25 10° NNW 09:04:32 26° WNW 09:05:43 23° W visible
25 Apr 5.4 06:45:00 10° ENE 06:47:24 14° E 06:47:24 14° E visible
25 Apr 3.0 08:21:59 10° N 08:26:58 59° WNW 08:27:32 55° WSW visible
26 Apr 3.3 07:44:11 10° NNE 07:49:12 59° E 07:49:22 59° ESE visible
26 Apr 4.7 09:24:38 10° NNW 09:27:35 16° WNW 09:29:30 13° W visible
27 Apr 4.7 07:07:05 10° NE 07:11:11 25° E 07:11:11 25° E visible
27 Apr 3.7 08:45:36 10° N 08:50:09 35° WNW 08:51:19 31° W visible
